| time (UTC) | temp C | wind direction | speed KPH | gust KPH | rain 1hr cm | rain 24hr cm | rain mn cm | humidity % | barometer mb |
| 20260508004420 | 9 | 338 | 22.5 | 46.7 | 0.00 | 0.03 | 0.03 | 80 | 1006.1 |
| 20260508003909 | 10 | 0 | 25.7 | 49.9 | 0.03 | 0.03 | 0.03 | 80 | 1005.9 |
| 20260508002850 | 9 | 0 | 24.1 | 46.7 | 0.03 | 0.03 | 0.03 | 82 | 1005.9 |
| 20260508002340 | 9 | 338 | 30.6 | 48.3 | 0.03 | 0.03 | 0.03 | 83 | 1005.8 |
| 20260508001830 | 9 | 45 | 24.1 | 48.3 | 0.03 | 0.03 | 0.03 | 85 | 1005.9 |
| 20260508001320 | 9 | 0 | 27.4 | 48.3 | 0.03 | 0.03 | 0.03 | 85 | 1005.8 |
| 20260508000809 | 9 | 0 | 24.1 | 48.3 | 0.03 | 0.03 | 0.03 | 86 | 1005.8 |
| 20260508000259 | 9 | 0 | 20.9 | 43.5 | 0.03 | 0.03 | 0.03 | 88 | 1005.7 |
| 20260507235749 | 9 | 0 | 27.4 | 43.5 | 0.03 | 0.03 | 0.03 | 90 | 1005.8 |
| 20260507235239 | 8 | 338 | 24.1 | 48.3 | 0.03 | 0.03 | 0.03 | 91 | 1005.8 |
| 20260507234729 | 8 | 0 | 30.6 | 48.3 | 0.03 | 0.03 | 0.03 | 92 | 1005.6 |
| 20260507234219 | 8 | 248 | 33.8 | 48.3 | 0.03 | 0.03 | 0.03 | 92 | 1005.7 |
| 20260507233708 | 8 | 315 | 30.6 | 46.7 | 0.00 | 0.00 | 0.00 | 91 | 1005.6 |
| 20260507232648 | 9 | 338 | 29.0 | 51.5 | 0.00 | 0.00 | 0.00 | 89 | 1005.7 |
| 20260507232138 | 9 | 338 | 27.4 | 51.5 | 0.00 | 0.00 | 0.00 | 89 | 1005.5 |
| 20260507231629 | 9 | 0 | 29.0 | 51.5 | 0.00 | 0.00 | 0.00 | 91 | 1005.7 |
| 20260507231118 | 8 | 23 | 30.6 | 51.5 | 0.00 | 0.00 | 0.00 | 92 | 1005.2 |
| 20260507230057 | 8 | 0 | 27.4 | 48.3 | 0.00 | 0.00 | 0.00 | 93 | 1005.0 |
| 20260507225547 | 9 | 338 | 22.5 | 48.3 | 0.00 | 0.00 | 0.00 | 92 | 1004.9 |
| 20260507225037 | 9 | 23 | 25.7 | 49.9 | 0.00 | 0.00 | 0.00 | 91 | 1004.8 |
| 20260507224533 | 9 | 338 | 24.1 | 49.9 | 0.00 | 0.00 | 0.00 | 89 | 1004.8 |
| 20260507224017 | 10 | 0 | 30.6 | 46.7 | 0.00 | 0.00 | 0.00 | 88 | 1004.7 |
| 20260507223507 | 10 | 90 | 22.5 | 54.7 | 0.00 | 0.00 | 0.00 | 88 | 1005.0 |
| 20260507222957 | 10 | 0 | 24.1 | 54.7 | 0.00 | 0.00 | 0.00 | 87 | 1004.9 |
| 20260507222447 | 10 | 338 | 29.0 | 43.5 | 0.00 | 0.00 | 0.00 | 88 | 1004.7 |
| 20260507221937 | 10 | 338 | 25.7 | 46.7 | 0.00 | 0.00 | 0.00 | 88 | 1004.8 |
| 20260507220406 | 10 | 0 | 24.1 | 43.5 | 0.00 | 0.00 | 0.00 | 90 | 1004.9 |
| 20260507215856 | 10 | 45 | 17.7 | 37.0 | 0.00 | 0.00 | 0.00 | 91 | 1004.7 |
| 20260507215346 | 10 | 23 | 17.7 | 43.5 | 0.00 | 0.00 | 0.00 | 92 | 1004.6 |
| 20260507214836 | 10 | 338 | 29.0 | 43.5 | 0.00 | 0.00 | 0.00 | 92 | 1004.4 |
| 20260507214329 | 10 | 23 | 19.3 | 29.0 | 0.00 | 0.00 | 0.00 | 91 | 1004.7 |
| 20260507205704 | 10 | 338 | 22.5 | 43.5 | 0.00 | 0.10 | 0.00 | 90 | 1004.4 |
| 20260507203624 | 11 | 0 | 17.7 | 38.6 | 0.00 | 0.10 | 0.00 | 86 | 1004.2 |
| 20260507203114 | 11 | 338 | 27.4 | 40.2 | 0.00 | 0.10 | 0.00 | 86 | 1004.2 |
| 20260507202604 | 11 | 23 | 22.5 | 40.2 | 0.00 | 0.10 | 0.00 | 86 | 1004.2 |
| 20260507202054 | 11 | 23 | 20.9 | 40.2 | 0.00 | 0.10 | 0.00 | 85 | 1003.8 |
| 20260507201544 | 11 | 45 | 25.7 | 40.2 | 0.00 | 0.10 | 0.00 | 85 | 1003.6 |
| 20260507201034 | 11 | 0 | 24.1 | 43.5 | 0.00 | 0.10 | 0.00 | 85 | 1003.5 |
| 20260507200524 | 11 | 23 | 27.4 | 43.5 | 0.00 | 0.10 | 0.00 | 85 | 1003.3 |
| 20260507200014 | 11 | 0 | 27.4 | 38.6 | 0.00 | 0.10 | 0.00 | 85 | 1003.6 |
| 20260507195504 | 11 | 338 | 17.7 | 38.6 | 0.00 | 0.10 | 0.00 | 84 | 1003.6 |
| 20260507194953 | 11 | 338 | 22.5 | 38.6 | 0.00 | 0.10 | 0.00 | 84 | 1003.3 |
| 20260507194443 | 11 | 45 | 20.9 | 43.5 | 0.00 | 0.10 | 0.00 | 86 | 1003.1 |
| 20260507193933 | 11 | 45 | 20.9 | 43.5 | 0.00 | 0.10 | 0.00 | 87 | 1002.7 |
| 20260507193423 | 11 | 0 | 29.0 | 43.5 | 0.00 | 0.10 | 0.00 | 87 | 1002.9 |
| 20260507192912 | 11 | 0 | 27.4 | 43.5 | 0.00 | 0.10 | 0.00 | 84 | 1002.9 |
| 20260507192403 | 11 | 338 | 19.3 | 48.3 | 0.00 | 0.10 | 0.00 | 83 | 1003.1 |
| 20260507191856 | 11 | 0 | 27.4 | 48.3 | 0.00 | 0.10 | 0.00 | 82 | 1003.2 |
| 20260507191343 | 11 | 338 | 27.4 | 43.5 | 0.00 | 0.10 | 0.00 | 82 | 1003.5 |
| 20260507190832 | 11 | 0 | 32.2 | 48.3 | 0.00 | 0.10 | 0.00 | 83 | 1003.7 |
| 20260507190323 | 11 | 45 | 27.4 | 48.3 | 0.00 | 0.10 | 0.00 | 83 | 1004.1 |
| 20260507185305 | 12 | 23 | 24.1 | 43.5 | 0.00 | 0.10 | 0.00 | 83 | 1003.9 |
| 20260507184752 | 12 | 0 | 24.1 | 43.5 | 0.00 | 0.10 | 0.00 | 82 | 1004.1 |
| 20260507183732 | 12 | 338 | 30.6 | 49.9 | 0.00 | 0.10 | 0.00 | 83 | 1004.4 |
| 20260507183221 | 12 | 0 | 24.1 | 46.7 | 0.00 | 0.10 | 0.00 | 84 | 1004.3 |
| 20260507182712 | 12 | 315 | 27.4 | 37.0 | 0.00 | 0.10 | 0.00 | 84 | 1004.2 |
| 20260507182201 | 12 | 338 | 24.1 | 38.6 | 0.00 | 0.10 | 0.00 | 85 | 1004.3 |
| 20260507181651 | 12 | 0 | 22.5 | 43.5 | 0.00 | 0.10 | 0.00 | 85 | 1004.2 |
| 20260507181141 | 12 | 0 | 27.4 | 43.5 | 0.00 | 0.10 | 0.00 | 86 | 1004.3 |
| 20260507180634 | 12 | 45 | 25.7 | 43.5 | 0.00 | 0.10 | 0.00 | 87 | 1004.2 |
| 20260507180133 | 11 | 45 | 16.1 | 33.8 | 0.00 | 0.13 | 0.00 | 88 | 1004.2 |
| 20260507175614 | 11 | 45 | 12.9 | 35.4 | 0.00 | 0.13 | 0.00 | 89 | 1004.3 |
| 20260507175103 | 11 | 0 | 17.7 | 37.0 | 0.00 | 0.13 | 0.00 | 89 | 1004.3 |
| 20260507174554 | 11 | 23 | 22.5 | 37.0 | 0.00 | 0.13 | 0.00 | 89 | 1004.2 |
| 20260507174044 | 11 | 338 | 17.7 | 37.0 | 0.00 | 0.13 | 0.00 | 89 | 1004.1 |
| 20260507173533 | 11 | 0 | 22.5 | 38.6 | 0.00 | 0.13 | 0.00 | 89 | 1004.0 |
| 20260507173023 | 11 | 0 | 14.5 | 38.6 | 0.00 | 0.13 | 0.00 | 91 | 1004.2 |
| 20260507172513 | 11 | 0 | 25.7 | 38.6 | 0.00 | 0.13 | 0.00 | 91 | 1004.3 |
| 20260507172003 | 11 | 23 | 17.7 | 35.4 | 0.00 | 0.13 | 0.00 | 91 | 1004.3 |
| 20260507171453 | 11 | 23 | 17.7 | 37.0 | 0.00 | 0.13 | 0.00 | 91 | 1003.9 |
| 20260507170943 | 11 | 0 | 22.5 | 37.0 | 0.00 | 0.15 | 0.00 | 90 | 1004.0 |
| 20260507170433 | 11 | 45 | 22.5 | 33.8 | 0.00 | 0.15 | 0.00 | 89 | 1003.8 |
| 20260507165412 | 11 | 0 | 14.5 | 38.6 | 0.00 | 0.15 | 0.00 | 90 | 1004.3 |
| 20260507164903 | 11 | 23 | 17.7 | 38.6 | 0.00 | 0.15 | 0.00 | 89 | 1004.2 |
| 20260507163842 | 12 | 23 | 19.3 | 29.0 | 0.00 | 0.15 | 0.00 | 86 | 1004.2 |
| 20260507163332 | 12 | 0 | 17.7 | 32.2 | 0.00 | 0.15 | 0.00 | 84 | 1004.5 |
| 20260507162822 | 12 | 0 | 12.9 | 33.8 | 0.00 | 0.15 | 0.00 | 84 | 1004.6 |
| 20260507162312 | 12 | 23 | 19.3 | 33.8 | 0.00 | 0.15 | 0.00 | 82 | 1004.5 |
| 20260507161801 | 12 | 45 | 16.1 | 35.4 | 0.00 | 0.15 | 0.00 | 81 | 1004.5 |
| 20260507161251 | 12 | 45 | 17.7 | 35.4 | 0.00 | 0.15 | 0.00 | 81 | 1004.7 |
| 20260507160741 | 12 | 45 | 20.9 | 35.4 | 0.00 | 0.15 | 0.00 | 81 | 1004.8 |
| 20260507160231 | 12 | 23 | 17.7 | 35.4 | 0.00 | 0.15 | 0.00 | 80 | 1004.7 |
| 20260507155722 | 12 | 0 | 16.1 | 35.4 | 0.00 | 0.15 | 0.00 | 80 | 1004.8 |
| 20260507154701 | 13 | 0 | 17.7 | 32.2 | 0.00 | 0.15 | 0.00 | 78 | 1004.9 |
| 20260507154151 | 13 | 0 | 14.5 | 27.4 | 0.00 | 0.15 | 0.00 | 77 | 1004.7 |
| 20260507153644 | 13 | 338 | 17.7 | 27.4 | 0.00 | 0.15 | 0.00 | 76 | 1004.4 |
| 20260507153131 | 13 | 0 | 9.7 | 35.4 | 0.00 | 0.15 | 0.00 | 75 | 1004.4 |
| 20260507152620 | 13 | 0 | 16.1 | 35.4 | 0.00 | 0.15 | 0.00 | 74 | 1004.2 |
| 20260507152110 | 13 | 68 | 6.4 | 38.6 | 0.00 | 0.15 | 0.00 | 75 | 1004.2 |
| 20260507151601 | 13 | 68 | 20.9 | 38.6 | 0.00 | 0.15 | 0.00 | 75 | 1004.1 |
| 20260507151050 | 13 | 23 | 20.9 | 35.4 | 0.00 | 0.15 | 0.00 | 75 | 1003.9 |
| 20260507150540 | 13 | 23 | 16.1 | 37.0 | 0.00 | 0.15 | 0.00 | 75 | 1004.3 |
| 20260507150030 | 13 | 45 | 16.1 | 38.6 | 0.00 | 0.15 | 0.00 | 75 | 1004.0 |
| 20260507145520 | 13 | 338 | 24.1 | 38.6 | 0.00 | 0.15 | 0.00 | 75 | 1003.6 |
| 20260507145009 | 13 | 0 | 17.7 | 43.5 | 0.00 | 0.15 | 0.00 | 75 | 1003.8 |
| 20260507144500 | 12 | 0 | 24.1 | 49.9 | 0.00 | 0.15 | 0.00 | 74 | 1003.8 |
| 20260507143949 | 12 | 338 | 16.1 | 49.9 | 0.00 | 0.15 | 0.00 | 74 | 1003.6 |
| 20260507143440 | 12 | 23 | 22.5 | 40.2 | 0.00 | 0.15 | 0.00 | 73 | 1003.6 |
| 20260507142929 | 12 | 338 | 24.1 | 40.2 | 0.00 | 0.15 | 0.00 | 73 | 1003.9 |
| 20260507142419 | 12 | 338 | 24.1 | 38.6 | 0.00 | 0.15 | 0.00 | 74 | 1003.6 |
| 20260507141909 | 13 | 338 | 19.3 | 40.2 | 0.00 | 0.15 | 0.00 | 73 | 1003.7 |
| 20260507141359 | 13 | 23 | 24.1 | 40.2 | 0.00 | 0.15 | 0.00 | 73 | 1003.6 |
| 20260507140849 | 13 | 338 | 24.1 | 37.0 | 0.00 | 0.15 | 0.00 | 73 | 1003.6 |
| 20260507140338 | 13 | 315 | 24.1 | 37.0 | 0.00 | 0.15 | 0.00 | 73 | 1003.4 |
| 20260507135829 | 13 | 23 | 17.7 | 40.2 | 0.00 | 0.15 | 0.00 | 74 | 1003.3 |
| 20260507135319 | 13 | 23 | 20.9 | 40.2 | 0.00 | 0.20 | 0.00 | 73 | 1003.2 |
| 20260507134808 | 12 | 0 | 25.7 | 43.5 | 0.00 | 0.38 | 0.00 | 73 | 1003.4 |
| 20260507134258 | 13 | 23 | 22.5 | 43.5 | 0.00 | 0.89 | 0.00 | 74 | 1003.5 |
| 20260507132728 | 12 | 0 | 17.7 | 40.2 | 0.00 | 1.02 | 0.00 | 75 | 1003.3 |
| 20260507132217 | 12 | 45 | 22.5 | 40.2 | 0.00 | 1.02 | 0.00 | 74 | 1003.4 |
| 20260507131708 | 12 | 338 | 19.3 | 35.4 | 0.00 | 1.02 | 0.00 | 74 | 1003.5 |
| 20260507131157 | 12 | 0 | 17.7 | 35.4 | 0.00 | 1.02 | 0.00 | 75 | 1003.3 |
| 20260507130648 | 12 | 338 | 14.5 | 40.2 | 0.00 | 1.02 | 0.00 | 75 | 1003.3 |
| 20260507130137 | 12 | 23 | 24.1 | 43.5 | 0.00 | 1.02 | 0.00 | 75 | 1003.3 |
| 20260507125627 | 12 | 68 | 24.1 | 43.5 | 0.00 | 1.02 | 0.00 | 75 | 1003.2 |
| 20260507125118 | 12 | 23 | 19.3 | 38.6 | 0.00 | 1.02 | 0.00 | 76 | 1002.9 |
| 20260507124607 | 12 | 0 | 17.7 | 40.2 | 0.00 | 1.02 | 0.00 | 76 | 1003.1 |
| 20260507124057 | 12 | 23 | 17.7 | 46.7 | 0.00 | 1.02 | 0.00 | 76 | 1003.1 |
| 20260507123547 | 12 | 45 | 22.5 | 51.5 | 0.00 | 1.02 | 0.00 | 76 | 1002.5 |
| 20260507123037 | 12 | 0 | 24.1 | 51.5 | 0.00 | 1.02 | 0.00 | 76 | 1002.5 |
| 20260507122527 | 12 | 0 | 27.4 | 49.9 | 0.00 | 1.02 | 0.00 | 76 | 1002.7 |
| 20260507122024 | 12 | 23 | 24.1 | 43.5 | 0.00 | 1.02 | 0.00 | 77 | 1002.8 |
| 20260507121507 | 12 | 45 | 20.9 | 38.6 | 0.00 | 1.02 | 0.00 | 78 | 1002.9 |
| 20260507120956 | 12 | 90 | 24.1 | 38.6 | 0.00 | 1.02 | 0.00 | 78 | 1002.8 |
| 20260507120446 | 12 | 23 | 24.1 | 38.6 | 0.00 | 1.02 | 0.00 | 79 | 1003.1 |
| 20260507115936 | 12 | 23 | 27.4 | 38.6 | 0.00 | 1.02 | 0.00 | 79 | 1003.2 |
| 20260507114916 | 12 | 0 | 14.5 | 38.6 | 0.00 | 1.02 | 0.00 | 80 | 1003.4 |
| 20260507114406 | 12 | 23 | 20.9 | 33.8 | 0.00 | 1.02 | 0.00 | 81 | 1003.5 |
| 20260507113345 | 12 | 338 | 16.1 | 35.4 | 0.00 | 1.02 | 0.00 | 81 | 1003.5 |
| 20260507112836 | 12 | 68 | 19.3 | 35.4 | 0.00 | 1.02 | 0.00 | 81 | 1003.8 |
| 20260507112325 | 12 | 23 | 14.5 | 24.1 | 0.00 | 1.02 | 0.00 | 81 | 1003.4 |
| 20260507111815 | 12 | 23 | 12.9 | 25.7 | 0.00 | 1.02 | 0.00 | 80 | 1003.4 |
| 20260507111305 | 12 | 23 | 12.9 | 25.7 | 0.00 | 1.02 | 0.00 | 79 | 1004.0 |
| 20260507110755 | 12 | 45 | 16.1 | 25.7 | 0.00 | 1.02 | 0.00 | 79 | 1003.8 |
| 20260507110245 | 12 | 23 | 12.9 | 32.2 | 0.00 | 1.02 | 0.00 | 80 | 1003.9 |
| 20260507105734 | 12 | 338 | 19.3 | 32.2 | 0.00 | 1.02 | 0.00 | 79 | 1004.4 |
| 20260507105225 | 12 | 45 | 17.7 | 32.2 | 0.00 | 1.02 | 0.00 | 80 | 1004.7 |
| 20260507104714 | 12 | 0 | 14.5 | 33.8 | 0.00 | 1.02 | 0.00 | 80 | 1005.0 |
| 20260507104204 | 12 | 45 | 9.7 | 33.8 | 0.00 | 1.02 | 0.00 | 79 | 1005.2 |
| 20260507103654 | 12 | 23 | 16.1 | 29.0 | 0.00 | 1.02 | 0.00 | 79 | 1004.9 |
| 20260507103144 | 12 | 23 | 12.9 | 25.7 | 0.00 | 1.02 | 0.00 | 80 | 1004.9 |
| 20260507102634 | 12 | 23 | 12.9 | 24.1 | 0.00 | 1.02 | 0.00 | 79 | 1005.0 |
| 20260507102124 | 12 | 45 | 9.7 | 24.1 | 0.00 | 1.02 | 0.00 | 80 | 1005.2 |
| 20260507101104 | 13 | 23 | 11.3 | 25.7 | 0.00 | 1.02 | 0.00 | 81 | 1004.4 |
| 20260507100554 | 13 | 23 | 17.7 | 27.4 | 0.00 | 1.02 | 0.00 | 83 | 1004.7 |
| 20260507100044 | 13 | 23 | 14.5 | 27.4 | 0.00 | 1.02 | 0.00 | 86 | 1004.3 |
| 20260507095533 | 13 | 68 | 8.0 | 20.9 | 0.00 | 1.02 | 0.00 | 88 | 1004.2 |
| 20260507095024 | 13 | 45 | 11.3 | 20.9 | 0.00 | 1.02 | 0.00 | 88 | 1004.4 |
| 20260507094510 | 13 | 45 | 8.0 | 22.5 | 0.00 | 1.02 | 0.00 | 87 | 1004.5 |
| 20260507094004 | 13 | 68 | 12.9 | 22.5 | 0.00 | 1.02 | 0.00 | 86 | 1004.5 |
| 20260507093453 | 13 | 23 | 9.7 | 22.5 | 0.00 | 1.02 | 0.00 | 86 | 1004.7 |
| 20260507092943 | 14 | 45 | 11.3 | 22.5 | 0.00 | 1.02 | 0.00 | 86 | 1005.0 |
| 20260507092432 | 13 | 45 | 8.0 | 29.0 | 0.00 | 1.02 | 0.00 | 88 | 1005.2 |
| 20260507091923 | 13 | 45 | 14.5 | 29.0 | 0.00 | 1.02 | 0.00 | 90 | 1005.0 |
| 20260507091412 | 14 | 23 | 11.3 | 29.0 | 0.00 | 1.02 | 0.00 | 92 | 1005.1 |
| 20260507090903 | 14 | 0 | 12.9 | 22.5 | 0.00 | 1.02 | 0.00 | 94 | 1004.8 |
| 20260507090352 | 14 | 45 | 11.3 | 22.5 | 0.00 | 1.02 | 0.00 | 94 | 1005.0 |
| 20260507085332 | 14 | 23 | 9.7 | 20.9 | 0.00 | 1.02 | 0.00 | 94 | 1005.2 |
| 20260507084822 | 14 | 23 | 3.2 | 17.7 | 0.00 | 1.02 | 0.00 | 94 | 1005.3 |
| 20260507083802 | 14 | 45 | 8.0 | 20.9 | 0.00 | 1.02 | 0.00 | 94 | 1005.5 |
| 20260507083251 | 14 | 45 | 6.4 | 20.9 | 0.00 | 1.02 | 0.00 | 94 | 1005.5 |
| 20260507082742 | 14 | 0 | 6.4 | 20.9 | 0.00 | 1.02 | 0.00 | 95 | 1005.6 |
| 20260507082231 | 14 | 45 | 9.7 | 20.9 | 0.00 | 1.02 | 0.00 | 95 | 1005.8 |
| 20260507081721 | 14 | 0 | 4.8 | 17.7 | 0.00 | 1.02 | 0.00 | 95 | 1005.7 |
| 20260507081215 | 14 | 23 | 11.3 | 17.7 | 0.00 | 1.02 | 0.00 | 95 | 1005.3 |
| 20260507080700 | 14 | 23 | 4.8 | 12.9 | 0.00 | 1.02 | 0.00 | 96 | 1005.5 |
| 20260507080151 | 13 | 23 | 0.0 | 17.7 | 0.00 | 1.02 | 0.00 | 96 | 1005.2 |
| 20260507075641 | 13 | 0 | 3.2 | 17.7 | 0.00 | 1.02 | 0.00 | 96 | 1005.0 |
| 20260507075130 | 13 | 45 | 4.8 | 12.9 | 0.00 | 1.02 | 0.00 | 96 | 1005.0 |
| 20260507073600 | 13 | 45 | 1.6 | 14.5 | 0.00 | 1.02 | 0.00 | 96 | 1004.6 |
| 20260507073050 | 13 | 23 | 0.0 | 9.7 | 0.00 | 1.02 | 0.00 | 96 | 1004.7 |
| 20260507072540 | 13 | 68 | 0.0 | 17.7 | 0.00 | 1.02 | 0.00 | 96 | 1004.7 |
| 20260507071520 | 13 | 45 | 1.6 | 11.3 | 0.00 | 1.02 | 0.00 | 96 | 1004.5 |
| 20260507071010 | 13 | 23 | 0.0 | 9.7 | 0.00 | 1.02 | 0.00 | 96 | 1004.7 |
| 20260507070459 | 13 | 45 | 0.0 | 9.7 | 0.00 | 1.02 | 0.00 | 96 | 1004.2 |
| 20260507065950 | 13 | 0 | 0.0 | 11.3 | 0.00 | 1.02 | 0.00 | 96 | 1004.3 |
| 20260507065439 | 13 | 0 | 0.0 | 11.3 | 0.00 | 1.02 | 0.00 | 96 | 1004.3 |
| 20260507064930 | 13 | 23 | 0.0 | 9.7 | 0.00 | 1.02 | 0.00 | 96 | 1004.5 |
| 20260507063909 | 13 | 0 | 0.0 | 12.9 | 0.00 | 1.02 | 0.00 | 96 | 1004.1 |
| 20260507062848 | 14 | 45 | 6.4 | 12.9 | 0.00 | 1.02 | 0.00 | 95 | 1004.0 |
| 20260507062339 | 14 | 45 | 6.4 | 12.9 | 0.00 | 1.02 | 0.00 | 95 | 1004.0 |
| 20260507061829 | 14 | 0 | 3.2 | 12.9 | 0.00 | 1.02 | 0.00 | 95 | 1004.4 |
| 20260507061318 | 14 | 338 | 1.6 | 11.3 | 0.00 | 1.02 | 0.00 | 95 | 1004.7 |
| 20260507060808 | 14 | 338 | 0.0 | 14.5 | 0.00 | 1.02 | 0.00 | 94 | 1004.3 |
| 20260507060258 | 14 | 0 | 3.2 | 14.5 | 0.00 | 1.02 | 0.00 | 94 | 1004.5 |
| 20260507055748 | 15 | 315 | 0.0 | 9.7 | 0.00 | 1.02 | 0.00 | 94 | 1004.7 |
| 20260507055237 | 15 | 338 | 3.2 | 11.3 | 0.00 | 1.02 | 0.00 | 94 | 1004.8 |
| 20260507054728 | 15 | 315 | 0.0 | 14.5 | 0.00 | 1.02 | 0.00 | 94 | 1004.7 |
| 20260507053708 | 15 | 248 | 6.4 | 22.5 | 0.00 | 1.02 | 0.00 | 95 | 1004.3 |
| 20260507053157 | 15 | 315 | 4.8 | 17.7 | 0.00 | 1.02 | 0.00 | 94 | 1004.1 |
| 20260507052648 | 15 | 293 | 6.4 | 17.7 | 0.00 | 1.02 | 0.00 | 94 | 1004.0 |
| 20260507052137 | 15 | 315 | 9.7 | 22.5 | 0.00 | 1.02 | 0.00 | 94 | 1004.1 |
| 20260507051628 | 15 | 315 | 12.9 | 22.5 | 0.00 | 1.02 | 0.00 | 94 | 1003.9 |
| 20260507051117 | 15 | 0 | 9.7 | 22.5 | 0.00 | 1.02 | 0.00 | 94 | 1003.4 |
| 20260507050607 | 15 | 0 | 11.3 | 24.1 | 0.00 | 1.02 | 0.00 | 93 | 1003.1 |
| 20260507050107 | 15 | 338 | 12.9 | 24.1 | 0.00 | 1.02 | 0.00 | 93 | 1003.1 |
| 20260507045547 | 15 | 338 | 12.9 | 25.7 | 0.00 | 1.02 | 0.00 | 93 | 1002.7 |
| 20260507045037 | 15 | 338 | 6.4 | 25.7 | 0.00 | 1.02 | 0.00 | 93 | 1002.7 |
| 20260507044530 | 15 | 338 | 12.9 | 24.1 | 0.00 | 1.02 | 0.00 | 93 | 1002.1 |
| 20260507044017 | 15 | 0 | 12.9 | 24.1 | 0.00 | 1.02 | 0.00 | 93 | 1001.8 |
| 20260507043506 | 15 | 0 | 8.0 | 22.5 | 0.00 | 1.02 | 0.00 | 92 | 1002.0 |
| 20260507042446 | 15 | 0 | 12.9 | 20.9 | 0.00 | 1.02 | 0.00 | 92 | 1001.9 |
| 20260507041937 | 15 | 338 | 14.5 | 20.9 | 0.00 | 1.02 | 0.00 | 91 | 1002.5 |
| 20260507040916 | 15 | 0 | 6.4 | 14.5 | 0.00 | 1.02 | 0.00 | 91 | 1003.0 |
| 20260507040405 | 16 | 0 | 6.4 | 12.9 | 0.00 | 1.02 | 0.00 | 90 | 1003.1 |
| 20260507035856 | 15 | 293 | 3.2 | 9.7 | 0.00 | 1.02 | 0.00 | 90 | 1003.4 |
| 20260507035346 | 16 | 270 | 3.2 | 6.4 | 0.00 | 1.02 | 0.00 | 90 | 1003.5 |
| 20260507034835 | 15 | 225 | 0.0 | 11.3 | 0.00 | 1.02 | 0.00 | 90 | 1003.7 |
| 20260507033816 | 16 | 270 | 3.2 | 17.7 | 0.00 | 1.02 | 0.00 | 90 | 1003.2 |
| 20260507032755 | 15 | 338 | 9.7 | 24.1 | 0.00 | 1.02 | 0.00 | 90 | 1002.6 |
| 20260507032244 | 15 | 338 | 11.3 | 25.7 | 0.00 | 1.02 | 0.00 | 90 | 1002.4 |
| 20260507031734 | 15 | 338 | 12.9 | 25.7 | 0.00 | 1.02 | 0.00 | 90 | 1002.1 |
| 20260507030205 | 15 | 338 | 16.1 | 25.7 | 0.00 | 1.02 | 0.00 | 91 | 1001.5 |
| 20260507025144 | 15 | 338 | 12.9 | 24.1 | 0.00 | 1.02 | 1.02 | 91 | 1002.1 |
| 20260507024634 | 15 | 0 | 11.3 | 20.9 | 0.00 | 1.02 | 1.02 | 90 | 1002.4 |
| 20260507023614 | 16 | 0 | 8.0 | 17.7 | 0.00 | 1.02 | 1.02 | 89 | 1002.6 |
| 20260507023104 | 16 | 23 | 6.4 | 17.7 | 0.00 | 1.02 | 1.02 | 89 | 1002.9 |
| 20260507021023 | 16 | 0 | 8.0 | 17.7 | 0.00 | 1.02 | 1.02 | 89 | 1002.6 |
| 20260507020513 | 16 | 45 | 9.7 | 14.5 | 0.00 | 1.02 | 1.02 | 90 | 1002.6 |
| 20260507020011 | 16 | 23 | 8.0 | 14.5 | 0.00 | 1.02 | 1.02 | 91 | 1002.4 |
| 20260507015453 | 16 | 0 | 8.0 | 17.7 | 0.00 | 1.02 | 1.02 | 91 | 1002.2 |
| 20260507014433 | 16 | 0 | 12.9 | 17.7 | 0.00 | 1.02 | 1.02 | 89 | 1002.0 |
| 20260507013922 | 16 | 0 | 11.3 | 20.9 | 0.00 | 1.02 | 1.02 | 89 | 1002.1 |
| 20260507013412 | 16 | 338 | 9.7 | 24.1 | 0.00 | 1.02 | 1.02 | 88 | 1002.1 |
| 20260507012903 | 17 | 0 | 12.9 | 24.1 | 0.00 | 1.02 | 1.02 | 87 | 1001.8 |
| 20260507011842 | 17 | 338 | 12.9 | 27.4 | 0.00 | 1.02 | 1.02 | 88 | 1002.0 |
| 20260507011332 | 17 | 338 | 11.3 | 25.7 | 0.00 | 1.02 | 1.02 | 89 | 1002.2 |
| 20260507010822 | 18 | 0 | 14.5 | 25.7 | 0.00 | 1.02 | 1.02 | 90 | 1002.4 |
| 20260507005801 | 20 | 315 | 12.9 | 33.8 | 0.00 | 1.02 | 1.02 | 90 | 1002.1 |
| 20260507005252 | 20 | 315 | 12.9 | 38.6 | 0.00 | 1.02 | 1.02 | 90 | 1002.4 |
| 20260507004746 | 20 | 315 | 24.1 | 43.5 | 0.00 | 1.02 | 1.02 | 89 | 1002.9 |